HELIOS 2A

Last updated on Wed Jun 28 2023 00:03:42 GMT+0000 (Coordinated Universal Time)

1 28492U 04049A 23178.42033703 .00001847 00000+0 17500-3 0 9990 2 28492 98.2818 145.4280 0012489 293.3238 66.6666 14.94915952991094

Satellite not in orbit

HELIOS 2A